TimeCDT,TemperatureF,Dew PointF,Humidity,Sea Level PressureIn,VisibilityMPH,Wind Direction,Wind SpeedMPH,Gust SpeedMPH,PrecipitationIn,Events,Conditions,WindDirDegrees,DateUTC
12:54 AM,32.0,21.0,64,30.23,10.0,SSE,8.1,-,N/A,,Clear,160,2013-03-14 05:54:00
1:54 AM,30.0,21.9,72,30.22,10.0,South,5.8,-,N/A,,Clear,170,2013-03-14 06:54:00
2:54 AM,30.9,23.0,72,30.19,10.0,South,4.6,-,N/A,,Clear,170,2013-03-14 07:54:00
3:54 AM,33.1,25.0,72,30.16,10.0,SSE,5.8,-,N/A,,Partly Cloudy,160,2013-03-14 08:54:00
4:54 AM,33.1,25.0,72,30.12,10.0,South,5.8,-,N/A,,Scattered Clouds,170,2013-03-14 09:54:00
5:54 AM,32.0,25.0,75,30.11,10.0,South,5.8,-,N/A,,Clear,190,2013-03-14 10:54:00
6:54 AM,30.9,25.0,79,30.11,10.0,South,4.6,-,N/A,,Clear,190,2013-03-14 11:54:00
7:54 AM,28.9,24.1,82,30.11,10.0,Calm,Calm,-,N/A,,Clear,0,2013-03-14 12:54:00
8:54 AM,33.1,27.0,78,30.12,10.0,Calm,Calm,-,N/A,,Clear,0,2013-03-14 13:54:00
9:54 AM,36.0,28.0,73,30.13,10.0,WSW,4.6,-,N/A,,Clear,240,2013-03-14 14:54:00
10:54 AM,43.0,32.0,65,30.13,9.0,Calm,Calm,-,N/A,,Clear,0,2013-03-14 15:54:00
11:54 AM,48.9,34.0,56,30.14,10.0,NNE,3.5,-,N/A,,Clear,20,2013-03-14 16:54:00
12:54 PM,51.1,35.1,54,30.16,10.0,North,8.1,-,N/A,,Clear,360,2013-03-14 17:54:00
1:54 PM,55.9,37.9,51,30.17,10.0,North,3.5,-,N/A,,Clear,360,2013-03-14 18:54:00
2:54 PM,59.0,39.0,48,30.14,10.0,Variable,4.6,-,N/A,,Clear,0,2013-03-14 19:54:00
3:54 PM,61.0,39.0,44,30.12,10.0,NNW,5.8,-,N/A,,Clear,330,2013-03-14 20:54:00
4:54 PM,61.0,39.0,44,30.13,10.0,NE,4.6,-,N/A,,Clear,40,2013-03-14 21:54:00
5:54 PM,60.1,39.0,46,30.14,10.0,Calm,Calm,-,N/A,,Clear,0,2013-03-14 22:54:00
6:54 PM,53.1,39.9,61,30.14,10.0,East,5.8,-,N/A,,Clear,80,2013-03-14 23:54:00
7:54 PM,48.9,39.0,69,30.13,10.0,East,5.8,-,N/A,,Clear,100,2013-03-15 00:54:00
8:54 PM,43.0,39.0,86,30.12,10.0,Calm,Calm,-,N/A,,Clear,0,2013-03-15 01:54:00
9:54 PM,39.9,36.0,86,30.13,9.0,Calm,Calm,-,N/A,,Clear,0,2013-03-15 02:54:00
10:54 PM,37.0,33.1,86,30.12,10.0,Calm,Calm,-,N/A,,Clear,0,2013-03-15 03:54:00
11:54 PM,37.0,34.0,89,30.10,8.0,Calm,Calm,-,N/A,,Clear,0,2013-03-15 04:54:00